Temperature
19 17 17 18 18 19 19 19 19 19 19 17 17 16 16 15 15 15 14 14 14 14 14 15 15 15 15 15 15 15 15 15 15 15 15 15 14 14 14 14 14 14 14 14
17 18 19 19 18 19 19 19 18 18 18 17 16 16 16 16 15 15 14 14 14 14 14 14 14 14 14 14 15 14 14 14 14 14 14 14 14 14 14 13 13 13 13 13
19 19 19 19 19 19 19 18 19 18 18 17 17 16 16 16 15 15 14 14 14 14 14 14 14 14 14 14 14 14 14 14 14 13 13 13 13 13 13 13 13 13 13 13
18 19 20 20 20 20 19 19 19 19 17 16 17 16 16 15 15 15 14 14 14 13 13 14 14 14 14 14 13 13 13 13 13 13 13 13 13 13 12 12 12 12 12 12
19 20 20 20 20 20 19 19 18 18 16 16 16 16 15 15 15 15 14 14 13 13 13 13 13 13 13 13 13 13 13 13 12 12 12 12 12 12 12 12 12 12 12 12
19 20 20 20 20 20 19 18 16 15 15 16 16 16 16 14 15 15 14 14 13 13 13 13 13 12 12 12 12 12 12 12 12 12 12 11 11 11 11 11 11 11 11 11
19 19 20 20 20 19 18 17 16 17 15 15 15 15 15 15 15 15 14 14 13 13 13 12 12 12 12 11 11 12 12 11 11 11 11 11 11 11 11 11 10 10 10 10
19 18 20 20 20 19 18 17 16 17 16 15 15 15 15 15 15 15 15 14 13 12 12 12 12 12 11 11 11 11 11 11 10 10 10 10 10 10 10 10 10 10 10 10
18 19 20 20 20 19 18 16 16 15 15 15 14 15 15 15 14 13 13 12 12 12 12 11 11 11 11 11 11 11 10 10 10 10 10 9 9 9 9 9 9 9 9 9
18 19 19 19 20 18 17 15 14 14 15 15 16 15 15 15 14 13 12 12 11 11 11 11 11 11 10 10 10 10 10 10 10 9 9 9 9 9 9 9 9 8 8 8
18 18 18 19 18 18 18 16 14 13 14 15 15 15 15 14 14 13 12 12 11 11 11 11 10 10 10 10 9 9 9 9 9 9 8 8 8 8 8 8 8 8 8 8
16 15 16 17 18 18 18 17 14 15 15 13 14 14 15 14 13 13 12 12 11 11 10 10 10 10 9 9 9 9 9 9 8 8 8 8 8 8 8 8 8 8 8 8
16 15 16 17 17 17 17 16 15 13 12 12 14 15 14 13 12 12 12 11 11 10 10 10 9 9 9 9 9 9 8 8 8 8 8 8 8 7 7 7 7 7 7 8
15 14 15 16 16 16 17 16 15 14 13 13 14 15 14 12 12 11 11 11 10 10 10 9 9 9 9 9 8 8 8 8 7 7 7 7 7 7 7 7 7 7 7 7
14 15 15 15 16 16 17 16 16 15 14 14 15 15 14 12 12 11 11 10 10 10 9 9 9 9 9 8 8 8 8 7 7 7 7 7 7 7 7 7 7 7 7 7
13 14 15 15 16 16 16 16 16 16 15 15 15 14 13 12 12 11 10 10 10 9 9 9 9 9 8 8 8 8 7 7 7 7 7 7 7 7 7 7 7 6 7 6
12 13 14 14 15 16 15 15 15 15 15 14 14 14 12 11 11 11 10 10 10 10 9 9 9 9 8 8 8 7 7 7 7 7 7 7 6 6 6 6 6 6 6 6
12 12 11 13 15 15 15 15 15 15 14 14 13 12 12 12 11 11 11 11 10 10 10 9 9 9 8 8 7 7 7 7 7 7 6 6 6 6 6 6 6 6 6 6
11 12 12 12 14 14 15 15 15 15 14 13 12 11 11 11 11 11 11 11 11 10 10 9 9 9 8 8 7 7 7 7 7 6 6 6 6 6 6 6 6 6 6 6
11 11 11 12 14 14 15 15 15 15 14 13 12 11 11 11 11 10 11 11 10 10 9 9 9 8 8 7 7 7 7 7 6 6 6 6 6 6 6 6 6 6 6 6
12 12 12 12 13 13 14 14 15 14 14 13 12 12 11 11 11 11 11 10 10 10 9 9 8 8 8 7 7 7 7 6 6 6 6 6 6 6 6 6 6 6 6 6
12 12 12 11 13 13 14 14 14 13 13 13 13 13 12 12 11 11 11 10 10 9 9 8 8 8 7 7 7 7 7 6 6 6 6 6 6 6 6 6 6 6 6 6
11 11 11 11 12 13 13 13 14 14 14 14 13 13 12 12 11 10 10 10 9 9 9 8 8 8 7 7 7 7 6 6 6 6 6 6 6 6 6 6 6 6 6 6
12 11 11 11 12 13 13 14 14 14 14 14 14 13 12 12 11 10 10 10 9 9 9 8 8 7 7 7 7 7 6 6 6 6 6 6 6 6 6 6 6 6 6 6
12 11 11 12 12 13 13 14 14 14 14 14 13 13 12 12 11 10 10 10 9 9 9 8 8 8 7 7 7 7 6 6 6 6 6 6 6 6 6 6 6 6 6 6
11 11 11 12 13 12 13 14 14 14 13 13 13 12 12 11 11 11 10 10 9 9 9 8 8 8 7 7 7 7 6 6 6 6 6 6 7 7 6 6 6 6 6 7
Wind_Speed
4 5 2 5 5 5 6 4 1 2 2 5 6 7 8 8 8 9 9 8 8 7 5 5 6 5 6 6 6 6 6 5 4 2 2 3 2 3 4 6 7 7 7 6
6 1 5 4 5 5 4 4 2 1 3 4 5 4 5 7 8 9 10 10 9 8 6 5 5 5 6 6 6 6 6 5 4 3 2 2 2 2 2 5 8 9 8 7
3 5 3 4 4 4 3 5 5 4 4 6 6 3 3 3 3 6 7 7 7 8 7 5 5 5 5 6 6 5 5 6 6 4 3 3 3 3 3 4 4 7 8 8
2 4 2 3 2 5 2 4 6 7 5 1 3 3 4 4 5 8 8 8 8 7 7 6 5 5 5 5 5 5 6 6 6 5 5 5 3 2 2 2 3 5 8 9
2 1 2 2 3 6 3 4 6 5 5 3 2 3 4 2 6 10 10 10 9 8 8 7 5 5 5 5 5 5 6 7 6 6 5 5 4 2 2 2 4 5 6 8
3 2 1 2 1 4 6 8 8 6 5 1 1 3 5 5 8 6 8 10 10 9 8 7 6 6 5 5 5 6 7 7 6 6 6 5 4 3 3 4 4 4 4 5
5 4 2 1 3 4 5 6 4 4 3 4 1 2 7 6 5 7 10 11 11 10 9 9 8 6 5 5 5 6 7 6 6 6 6 5 4 4 3 3 3 4 4 4
2 4 3 0 3 4 3 7 7 5 5 4 1 4 5 3 1 4 8 10 11 10 9 8 8 7 6 5 5 5 5 5 4 5 5 4 4 3 2 3 2 3 2 3
4 3 4 2 1 6 5 3 5 7 4 1 4 4 4 2 3 6 9 10 10 10 9 8 7 7 6 5 4 4 4 4 4 4 4 4 4 4 4 3 3 3 3 3
5 1 3 3 4 5 5 8 6 6 5 2 3 4 4 4 5 7 9 10 9 9 9 8 7 6 5 4 4 4 4 3 3 4 4 3 4 4 4 4 4 4 4 4
3 3 3 3 2 0 3 4 5 5 5 6 3 6 4 7 8 9 9 10 11 11 10 8 7 6 5 5 4 4 3 4 4 4 4 4 4 4 4 4 4 4 4 5
2 4 0 3 2 0 3 4 6 5 3 4 4 6 3 3 5 8 9 9 10 10 9 8 7 7 6 5 4 3 3 4 3 3 4 4 4 4 5 5 4 4 4 4
3 5 2 5 5 4 4 2 4 5 5 5 4 5 2 4 5 7 8 9 10 10 10 8 7 7 6 5 4 3 3 3 3 3 3 4 4 4 4 4 4 4 4 4
4 4 5 6 5 2 0 0 2 5 4 4 5 4 1 3 5 6 7 9 10 10 10 9 7 6 5 5 4 3 3 2 2 3 3 3 3 3 3 3 4 4 4 4
5 3 2 1 1 2 1 0 1 3 5 6 5 4 4 5 6 7 8 10 11 10 10 9 8 7 6 5 4 3 3 2 2 3 3 2 2 3 3 3 4 4 4 4
4 4 2 2 2 2 2 3 1 1 1 1 2 1 0 4 5 6 8 10 10 10 10 9 8 8 7 6 5 4 3 2 3 3 2 2 3 3 3 3 3 4 4 5
3 3 3 1 4 2 2 3 1 1 1 2 2 3 4 4 7 8 9 9 9 9 9 9 8 7 7 6 5 5 3 3 3 3 2 2 3 3 3 3 4 4 4 4
4 4 3 1 4 0 3 2 1 2 2 1 2 3 4 4 4 4 6 9 9 9 9 8 8 7 6 5 5 4 4 4 3 3 2 2 2 3 3 4 4 4 3 3
4 5 4 3 1 2 2 1 1 1 1 2 2 4 5 6 5 3 3 6 8 8 8 8 7 7 7 6 6 6 5 4 3 3 2 2 2 3 3 4 3 3 3 4
5 5 4 3 2 2 3 3 1 2 1 1 3 6 6 6 3 2 5 7 8 8 8 8 8 7 7 6 6 6 5 3 2 2 2 2 2 3 3 2 2 2 2 3
4 4 4 3 1 4 4 4 1 2 4 2 4 5 6 4 3 4 8 8 9 9 9 9 9 7 6 6 6 5 4 3 2 2 3 3 3 2 2 2 2 2 3 4
3 3 2 3 1 4 4 2 2 4 1 2 4 5 6 6 7 8 9 10 10 9 9 8 8 6 5 6 6 5 3 2 3 3 3 3 3 2 2 3 3 3 3 3
2 4 4 4 4 4 3 1 1 3 3 3 4 6 8 8 8 8 8 9 9 9 8 7 8 7 5 4 5 5 3 3 4 4 3 2 3 3 3 2 2 2 2 2
1 2 3 0 2 2 2 2 1 2 2 4 6 8 8 8 9 9 9 8 8 8 8 7 8 7 5 4 4 4 3 4 4 3 2 2 2 2 3 2 1 1 1 1
2 2 2 0 2 2 3 2 2 4 5 7 7 6 8 10 9 9 9 9 8 7 6 7 8 7 6 4 4 3 4 5 4 3 2 1 1 1 2 2 1 0 1 2
2 4 5 4 5 4 2 1 2 5 5 6 7 7 6 7 9 8 8 7 8 8 7 7 7 6 5 5 4 3 4 5 4 2 1 1 1 1 1 1 2 2 2 3
Wind_Direction
61 76 158 201 180 153 143 136 154 249 168 125 138 149 168 167 163 164 160 156 151 139 119 94 81 75 75 68 64 57 55 46 50 54 66 68 52 33 36 39 35 30 26 27
47 315 226 181 157 141 139 129 150 27 95 119 120 129 162 175 184 177 170 168 160 145 128 105 84 65 64 65 62 63 58 53 51 54 62 78 72 51 47 37 34 26 22 23
170 235 196 153 146 141 166 171 182 155 80 75 103 70 186 195 184 169 169 164 157 155 147 133 109 85 74 67 62 68 59 57 52 56 69 70 54 33 27 19 17 13 17 21
235 263 169 145 174 149 233 206 162 141 120 140 147 182 239 208 203 192 179 168 164 158 148 140 122 100 82 73 69 67 64 60 53 55 67 72 73 51 13 3 2 5 19 22
284 250 141 167 213 163 182 101 110 111 118 95 51 138 268 190 217 211 190 177 168 163 153 145 132 111 88 74 70 69 69 62 55 58 63 70 68 51 22 19 18 11 13 19
255 268 184 201 115 134 125 79 61 52 72 83 233 157 253 215 216 201 183 173 164 158 150 139 125 110 92 77 69 68 70 59 51 57 61 69 73 64 45 27 20 9 3 8
355 344 329 126 86 49 94 96 53 13 19 248 273 178 244 245 226 198 179 170 161 156 151 145 136 122 104 87 74 70 70 59 49 55 58 62 69 68 56 32 20 13 7 1
65 318 308 319 167 163 154 138 156 183 205 258 325 230 255 297 243 157 152 151 150 150 148 147 143 132 120 104 87 78 75 67 54 57 56 53 57 60 49 40 36 20 360 347
164 262 310 341 74 131 129 135 154 130 134 132 274 275 299 68 99 125 134 142 148 148 145 143 139 129 127 118 101 93 87 73 55 57 58 50 44 47 45 38 37 24 5 4
152 186 312 305 63 44 118 140 103 117 142 213 279 264 237 212 191 165 157 156 150 147 144 142 139 133 131 123 110 99 93 87 76 70 65 59 44 42 42 40 30 21 13 17
124 146 321 20 60 131 84 88 100 106 142 158 221 265 230 207 194 179 173 164 157 156 152 149 140 133 128 118 111 107 95 76 66 62 61 55 42 39 42 36 22 19 19 18
106 119 289 286 293 197 130 142 144 145 183 165 172 259 324 203 172 162 161 155 150 146 141 136 132 128 125 121 115 106 94 81 65 59 58 52 44 39 38 29 17 20 19 18
108 105 66 350 350 12 64 94 121 122 120 148 168 254 13 85 114 138 148 148 143 138 135 133 134 135 134 129 119 105 91 83 67 67 66 52 43 40 33 23 14 17 18 19
107 104 154 189 223 215 48 40 141 127 142 183 209 223 250 138 144 146 146 145 142 142 144 145 144 142 139 134 131 121 100 89 83 77 70 56 38 36 31 27 21 15 19 22
86 111 140 205 254 146 157 258 154 162 176 181 212 203 225 188 173 161 149 143 145 151 154 156 154 151 148 142 134 125 110 90 88 80 64 47 36 37 34 30 26 23 27 26
61 109 84 36 32 91 64 16 37 114 128 162 139 237 133 125 125 140 149 154 157 163 163 160 160 158 156 153 146 134 121 102 94 83 61 45 45 41 34 30 32 31 28 25
58 100 85 326 323 46 9 337 359 42 36 157 188 215 146 144 161 168 167 164 162 162 161 160 161 159 157 152 145 142 137 114 96 84 62 49 50 49 38 40 41 32 24 28
120 100 106 64 41 68 262 313 72 94 31 37 130 148 159 155 145 144 154 158 156 157 156 154 151 148 143 134 131 128 115 105 93 77 61 50 53 49 47 45 35 26 25 28
123 126 108 102 81 303 311 332 82 129 344 16 120 122 110 114 88 78 132 150 154 154 148 144 143 140 134 131 131 122 109 97 84 69 51 44 59 62 52 41 28 21 30 28
57 81 103 107 121 240 267 307 294 117 315 313 139 147 146 132 138 207 145 130 127 126 127 130 128 124 128 133 132 124 120 111 103 85 62 52 63 70 60 38 24 24 34 29
41 46 87 119 173 272 288 309 55 122 254 215 159 157 155 162 171 143 131 125 125 125 127 129 129 131 138 138 129 124 123 126 132 102 78 62 58 67 69 42 29 43 44 41
144 124 136 127 150 263 320 40 138 216 211 148 150 149 141 124 113 121 127 128 128 128 131 132 131 130 132 134 130 130 137 134 108 98 82 61 50 56 65 58 43 44 48 47
168 180 174 177 206 249 302 273 263 160 148 154 144 140 134 125 127 129 131 133 134 136 136 133 132 127 125 133 138 141 152 130 112 98 83 63 53 51 53 62 51 39 39 47
342 123 119 110 295 316 353 17 44 104 132 130 133 136 137 133 136 137 139 139 138 139 140 136 134 135 139 144 144 155 151 134 119 107 88 65 54 40 35 38 49 55 26 26
239 131 113 246 287 12 4 26 87 85 96 108 112 126 137 134 137 145 148 149 149 146 144 144 147 150 153 149 149 155 148 138 127 117 97 74 63 50 30 23 8 319 263 232
211 172 166 212 217 175 226 225 124 117 123 132 126 122 125 138 142 143 149 152 150 149 146 144 147 151 154 153 157 160 154 147 140 130 113 87 57 35 34 23 2 339 285 299
Height
1496 1502 1506 1504 1503 1504 1508 1514 1518 1516 1512 1516 1520 1523 1525 1527 1529 1531 1533 1534 1536 1538 1540 1541 1542 1543 1543 1544 1544 1546 1546 1547 1549 1550 1550 1551 1551 1552 1552 1552 1552 1552 1552 1552
1502 1504 1499 1499 1501 1504 1508 1514 1517 1515 1513 1517 1523 1526 1525 1526 1527 1529 1531 1533 1535 1537 1539 1541 1542 1542 1543 1543 1544 1545 1546 1547 1548 1549 1550 1550 1550 1551 1551 1551 1551 1551 1551 1550
1501 1500 1496 1498 1501 1505 1508 1512 1513 1515 1516 1519 1524 1531 1528 1527 1529 1530 1532 1533 1535 1536 1538 1540 1541 1542 1543 1543 1544 1544 1545 1547 1548 1548 1549 1549 1550 1550 1550 1550 1550 1550 1549 1549
1498 1495 1495 1497 1500 1501 1509 1504 1507 1512 1521 1530 1527 1539 1531 1528 1528 1529 1530 1532 1534 1536 1538 1540 1541 1542 1543 1543 1544 1544 1545 1546 1548 1549 1549 1549 1549 1549 1549 1549 1549 1549 1548 1547
1498 1494 1495 1498 1497 1498 1503 1502 1506 1513 1522 1531 1531 1537 1535 1528 1528 1526 1527 1529 1532 1535 1537 1539 1541 1542 1543 1544 1544 1545 1546 1547 1547 1548 1548 1549 1549 1549 1549 1549 1549 1548 1548 1547
1495 1492 1493 1493 1493 1495 1499 1506 1513 1521 1527 1538 1533 1537 1535 1528 1522 1521 1524 1527 1530 1533 1536 1538 1541 1542 1543 1544 1545 1545 1546 1547 1547 1548 1548 1549 1549 1549 1549 1548 1548 1547 1547 1546
1499 1495 1492 1492 1496 1498 1502 1516 1534 1537 1545 1542 1532 1535 1532 1519 1516 1517 1520 1524 1528 1532 1535 1537 1540 1542 1543 1544 1545 1545 1546 1547 1547 1548 1548 1548 1548 1548 1548 1548 1547 1547 1546 1545
1508 1508 1495 1492 1495 1500 1504 1512 1532 1541 1545 1542 1535 1535 1525 1516 1515 1515 1518 1522 1527 1530 1534 1537 1539 1541 1543 1544 1545 1546 1546 1547 1547 1548 1548 1548 1548 1547 1547 1547 1546 1546 1545 1545
1507 1506 1493 1491 1491 1495 1505 1512 1513 1529 1536 1542 1539 1530 1521 1516 1516 1517 1520 1523 1526 1529 1533 1536 1539 1541 1543 1544 1545 1546 1547 1547 1547 1547 1547 1548 1547 1547 1547 1546 1546 1546 1545 1544
1498 1504 1496 1493 1492 1495 1499 1508 1520 1529 1540 1544 1536 1531 1527 1518 1517 1518 1521 1523 1526 1529 1533 1536 1539 1541 1543 1545 1546 1546 1547 1546 1547 1547 1548 1548 1548 1547 1547 1546 1546 1545 1545 1544
1495 1504 1502 1497 1500 1502 1503 1509 1518 1528 1530 1540 1543 1534 1514 1513 1513 1516 1519 1522 1525 1528 1532 1535 1538 1541 1543 1544 1546 1547 1547 1547 1547 1548 1548 1548 1548 1547 1547 1546 1546 1545 1545 1544
1497 1505 1511 1504 1498 1496 1499 1505 1513 1523 1529 1533 1536 1532 1511 1510 1511 1515 1518 1522 1525 1529 1532 1535 1538 1541 1543 1544 1546 1547 1547 1548 1548 1549 1549 1549 1549 1548 1548 1547 1546 1546 1545 1543
1497 1507 1517 1515 1511 1503 1503 1505 1509 1517 1526 1533 1535 1527 1512 1511 1513 1516 1519 1522 1526 1529 1533 1536 1538 1540 1543 1544 1546 1547 1548 1548 1549 1550 1550 1550 1550 1549 1548 1548 1547 1546 1545 1544
1495 1507 1515 1519 1514 1507 1506 1506 1508 1514 1524 1527 1524 1518 1514 1514 1515 1517 1519 1522 1525 1529 1533 1536 1538 1540 1543 1545 1546 1547 1548 1549 1550 1551 1551 1550 1550 1550 1549 1548 1547 1546 1545 1544
1496 1507 1506 1506 1503 1503 1505 1506 1507 1510 1512 1518 1515 1514 1512 1512 1514 1517 1519 1522 1526 1529 1532 1535 1538 1541 1543 1545 1546 1547 1548 1549 1550 1551 1551 1551 1551 1550 1549 1549 1548 1547 1546 1545
1500 1507 1507 1508 1505 1504 1507 1506 1506 1506 1508 1510 1511 1513 1511 1512 1514 1517 1520 1522 1525 1529 1532 1535 1538 1540 1542 1545 1546 1548 1549 1550 1551 1551 1552 1552 1551 1551 1550 1549 1549 1548 1547 1546
1505 1508 1513 1516 1509 1506 1514 1510 1508 1508 1507 1509 1512 1513 1512 1513 1514 1516 1519 1522 1524 1528 1531 1534 1537 1540 1542 1544 1546 1548 1549 1550 1551 1552 1552 1552 1552 1551 1551 1550 1549 1548 1547 1547
1506 1511 1518 1518 1514 1520 1516 1506 1506 1507 1508 1508 1508 1510 1511 1512 1514 1517 1519 1521 1524 1528 1531 1534 1537 1540 1543 1545 1547 1548 1550 1551 1551 1552 1552 1552 1552 1552 1552 1551 1550 1549 1548 1548
1503 1509 1518 1523 1522 1518 1511 1506 1506 1508 1510 1509 1509 1511 1512 1514 1516 1519 1520 1522 1525 1528 1531 1534 1538 1540 1543 1545 1547 1549 1550 1551 1552 1553 1553 1553 1553 1553 1553 1552 1551 1550 1550 1549
1506 1509 1517 1522 1521 1522 1514 1506 1504 1507 1512 1509 1509 1510 1512 1514 1519 1520 1520 1523 1526 1529 1532 1535 1538 1541 1544 1546 1548 1550 1551 1552 1553 1554 1554 1555 1555 1554 1554 1553 1552 1552 1551 1550
1513 1515 1519 1522 1523 1518 1509 1506 1506 1515 1515 1508 1508 1510 1512 1514 1516 1519 1520 1523 1526 1530 1533 1536 1539 1542 1545 1547 1549 1550 1552 1553 1554 1555 1556 1556 1556 1556 1555 1554 1554 1553 1553 1552
1514 1517 1520 1523 1524 1521 1508 1506 1509 1510 1507 1507 1508 1509 1512 1514 1516 1518 1521 1524 1527 1531 1534 1537 1540 1543 1545 1548 1550 1551 1553 1554 1555 1556 1557 1557 1557 1557 1556 1556 1555 1555 1554 1553
1512 1513 1514 1517 1518 1510 1508 1507 1507 1506 1507 1507 1508 1510 1512 1514 1517 1519 1522 1526 1529 1532 1535 1538 1541 1544 1546 1549 1551 1552 1554 1555 1556 1557 1558 1558 1558 1558 1558 1557 1557 1556 1555 1555
1509 1509 1511 1512 1510 1508 1508 1507 1507 1507 1507 1508 1509 1511 1513 1515 1518 1521 1524 1527 1530 1534 1536 1539 1542 1544 1547 1549 1552 1554 1555 1557 1557 1558 1559 1559 1559 1559 1559 1559 1558 1557 1557 1556
1508 1509 1511 1511 1509 1508 1508 1508 1508 1508 1509 1510 1511 1513 1515 1517 1519 1522 1525 1528 1531 1534 1537 1540 1542 1545 1548 1550 1552 1554 1556 1557 1558 1559 1560 1560 1560 1560 1560 1560 1559 1559 1558 1557
1506 1508 1510 1510 1507 1508 1509 1509 1510 1510 1511 1512 1513 1515 1517 1519 1521 1523 1526 1529 1532 1535 1538 1540 1543 1546 1548 1551 1553 1555 1557 1558 1559 1560 1561 1561 1561 1561 1561 1561 1560 1560 1559 1559